Wind_Speed
14 16 16 16 17 17 17 17 17 16 16 17 17 17 18 18 18 18 18 19 19 19 20 20 20 20 20 19 20 20 20 20 20 20 21 20 20 20
15 16 16 18 18 18 17 17 17 17 16 16 17 17 18 18 18 18 18 19 20 20 21 21 21 21 21 20 20 20 20 21 21 21 21 21 22 22
16 16 17 18 18 18 17 17 17 17 16 16 17 18 18 18 19 20 20 20 20 21 21 21 21 21 21 20 21 21 21 21 22 22 22 22 23 23
17 17 17 18 17 17 17 17 18 17 17 17 18 18 18 20 20 21 21 21 21 22 22 21 21 22 22 22 22 21 22 22 22 22 23 23 24 24
18 17 18 18 17 17 18 18 18 18 18 18 17 18 19 20 20 21 22 22 22 22 22 22 22 22 22 23 23 23 23 23 23 23 24 24 25 25
19 18 18 18 18 18 18 18 18 19 19 19 19 19 20 20 20 21 21 21 22 22 21 21 21 22 22 23 23 24 24 24 25 25 25 26 26 26
21 19 19 19 19 19 19 19 19 19 19 19 20 20 21 21 21 21 22 22 22 22 22 21 22 22 22 23 23 23 24 24 25 25 25 26 27 26
22 21 21 21 21 21 21 20 20 20 20 20 21 21 22 22 22 23 23 23 23 22 22 23 23 23 23 23 23 24 24 24 25 26 27 27 27 28
23 23 23 23 23 22 22 21 21 22 22 22 22 22 23 23 24 24 24 24 23 23 23 23 23 23 23 23 24 24 25 25 26 26 27 28 29 29
24 25 25 25 24 24 23 23 24 23 23 23 23 23 24 24 24 24 24 25 25 25 25 24 24 24 24 25 25 25 25 25 26 26 27 28 29 30
26 26 26 26 25 26 26 26 25 25 25 25 25 25 25 25 25 25 25 25 24 24 26 26 26 26 27 27 27 28 28 27 27 28 28 29 29 30
27 27 27 26 27 27 27 26 25 25 26 26 26 26 26 26 26 26 26 26 26 26 27 27 27 27 27 28 28 29 29 29 30 30 30 30 30 30
28 28 28 28 28 28 28 27 26 26 26 26 26 27 27 27 27 28 28 28 28 28 28 28 28 29 29 29 30 31 31 32 32 32 32 31 31 31
29 29 29 29 29 29 29 27 26 27 27 27 27 28 28 29 29 29 29 29 30 30 30 30 30 30 30 30 31 32 33 33 33 33 33 33 32 32
30 29 29 29 28 29 29 29 28 28 28 29 29 29 29 30 30 30 30 30 31 31 32 32 32 32 32 32 33 33 33 33 33 33 34 34 34 34
31 30 30 30 30 30 30 30 30 30 30 30 30 30 30 31 31 31 31 31 32 32 33 33 34 34 34 34 34 34 34 34 34 34 34 34 35 35
31 31 31 31 31 31 31 31 32 31 31 31 31 31 31 31 31 31 32 33 33 33 34 34 35 35 35 35 35 35 35 35 35 35 35 35 36 36
32 32 32 33 33 33 32 32 33 32 32 32 32 32 31 32 32 32 33 34 35 34 35 35 35 35 35 36 36 36 35 35 35 35 36 36 36 37
33 33 33 34 34 34 34 34 34 34 33 32 32 32 32 33 33 34 34 34 35 34 34 34 35 35 36 36 36 36 36 36 36 35 36 36 36 35
34 34 34 34 34 34 34 34 33 33 32 32 32 32 33 33 34 34 34 34 34 34 35 36 36 35 36 36 35 35 36 36 36 36 35 35 35 35
34 33 33 34 34 34 34 33 33 32 31 31 31 32 32 33 33 34 34 35 35 35 36 35 35 35 35 36 35 35 36 36 36 35 35 35 35 35
33 33 33 33 33 33 33 33 32 31 32 32 31 31 31 32 33 33 33 34 35 35 35 35 35 35 35 35 36 36 35 36 36 36 36 35 35 35
33 32 31 32 31 31 31 31 31 32 32 32 33 32 32 33 33 33 34 35 35 35 35 35 35 35 34 35 36 36 35 35 36 36 36 36 36 35
Wind_Direction
302 304 302 298 298 297 294 291 289 287 284 284 280 278 275 275 275 275 276 277 279 280 280 279 280 280 280 281 280 278 275 275 275 272 272 271 270 269
304 305 303 303 300 297 294 292 291 289 286 282 280 277 274 273 273 274 276 277 278 279 279 280 279 279 279 278 278 278 275 276 274 272 271 271 271 272
309 307 306 304 299 299 299 296 293 290 288 283 280 279 277 276 275 275 275 276 276 278 280 279 278 280 280 279 277 278 276 275 274 273 272 272 274 274
310 311 309 307 304 301 300 298 296 293 288 284 282 282 281 280 277 276 275 276 276 277 279 279 279 280 279 278 277 276 275 274 274 274 272 272 273 275
309 308 308 307 303 301 299 297 294 292 290 288 284 285 288 285 280 277 276 276 276 277 278 277 278 281 280 276 275 274 274 274 273 274 275 273 273 274
305 306 306 306 304 300 299 298 294 292 290 289 285 285 288 284 282 280 280 279 278 279 280 280 280 281 280 278 277 277 277 276 274 275 276 275 275 275
304 303 302 300 302 302 300 299 297 295 292 289 288 286 288 286 283 282 282 282 282 282 282 284 284 282 282 282 281 280 280 280 279 278 278 278 277 276
299 300 300 300 299 300 300 298 297 296 293 291 290 288 288 287 283 283 283 283 281 281 282 284 285 283 282 282 283 283 282 281 279 279 279 278 277 277
296 296 297 296 296 296 296 299 300 296 293 293 292 291 289 289 285 283 283 283 281 280 281 283 282 282 282 282 283 285 285 283 282 281 281 279 278 278
294 294 294 293 292 293 293 295 297 297 293 293 293 292 290 289 288 286 285 284 283 281 280 281 280 280 281 282 282 282 283 284 283 282 282 282 281 281
290 292 293 293 291 291 291 292 293 292 292 293 293 293 292 290 288 286 286 285 285 283 281 280 279 279 281 282 282 283 283 283 283 284 282 281 281 281
290 291 291 291 290 289 290 291 290 290 290 290 291 292 290 289 288 287 287 287 284 283 282 281 279 280 281 281 281 281 282 282 282 283 283 282 282 282
290 291 291 291 289 288 289 289 287 288 288 288 289 290 290 289 289 288 287 287 286 285 283 282 282 281 282 281 282 282 281 281 281 281 281 281 281 282
290 291 292 291 290 289 290 290 289 290 291 290 290 290 289 289 290 289 287 286 286 286 285 284 284 284 283 282 282 282 282 281 281 280 280 280 280 281
289 290 290 290 291 291 292 290 290 291 292 292 291 291 289 289 290 289 288 287 287 288 286 285 285 285 285 285 284 283 282 280 279 279 279 279 280 280
288 288 288 288 289 291 293 291 290 290 291 292 291 290 290 290 289 288 287 287 288 288 288 288 288 287 286 285 285 285 284 282 281 280 280 280 279 279
287 287 287 288 289 290 291 291 291 290 290 290 290 290 290 290 290 289 288 289 288 287 288 289 289 289 288 287 287 286 285 283 282 281 280 280 280 280
286 286 286 287 288 289 290 290 289 289 289 289 289 290 290 290 291 291 291 290 289 288 288 289 288 288 287 287 287 287 287 285 284 282 282 282 282 281
283 284 285 286 287 288 289 290 290 289 287 287 288 288 288 290 291 291 292 291 290 289 289 289 288 288 288 287 287 287 287 286 284 283 283 283 282 281
283 283 285 286 287 288 289 290 291 290 288 288 288 288 289 290 291 291 292 292 291 290 290 289 289 288 287 286 285 286 286 285 285 284 283 283 282 280
285 284 285 286 286 287 289 290 290 289 288 288 289 290 290 290 291 292 292 292 292 290 290 290 289 288 288 287 287 287 286 286 286 285 284 283 282 281
286 286 286 286 287 288 288 289 290 289 288 288 290 291 292 293 293 293 293 293 293 292 292 291 290 289 288 288 288 288 287 286 285 285 285 284 284 283
287 287 286 286 287 288 289 289 289 289 289 288 289 291 293 294 294 294 294 294 294 294 293 292 291 291 290 291 290 289 288 287 286 286 286 285 284 283
Height
5863 5861 5859 5858 5857 5855 5854 5853 5852 5851 5850 5849 5848 5847 5846 5845 5844 5844 5843 5843 5842 5841 5841 5840 5839 5838 5836 5836 5835 5834 5834 5834 5834 5834 5834 5834 5834 5834
5859 5857 5855 5853 5852 5850 5848 5847 5847 5846 5845 5844 5843 5842 5841 5840 5839 5839 5838 5837 5837 5836 5835 5834 5833 5832 5831 5830 5830 5829 5829 5828 5828 5828 5828 5829 5829 5829
5855 5853 5851 5849 5847 5845 5844 5843 5842 5841 5840 5839 5838 5837 5836 5835 5834 5833 5832 5832 5831 5830 5829 5828 5827 5827 5826 5825 5824 5823 5823 5823 5823 5823 5823 5823 5823 5823
5851 5850 5847 5845 5843 5841 5840 5838 5837 5836 5835 5834 5833 5831 5830 5829 5828 5828 5827 5826 5825 5824 5823 5822 5821 5821 5820 5819 5818 5818 5817 5817 5817 5817 5816 5816 5816 5816
5847 5845 5843 5841 5839 5837 5836 5834 5833 5831 5829 5828 5827 5826 5825 5823 5822 5821 5820 5820 5819 5818 5817 5816 5815 5814 5814 5813 5812 5811 5811 5811 5811 5810 5810 5810 5809 5809
5843 5841 5839 5837 5835 5833 5831 5829 5827 5826 5824 5823 5822 5821 5819 5817 5816 5815 5814 5813 5813 5812 5810 5810 5809 5808 5807 5806 5806 5805 5805 5804 5804 5803 5803 5803 5802 5802
5838 5836 5834 5832 5830 5828 5826 5824 5822 5821 5819 5818 5816 5815 5813 5811 5810 5809 5808 5808 5807 5805 5805 5804 5803 5802 5801 5800 5799 5799 5798 5797 5797 5796 5796 5795 5795 5794
5833 5831 5829 5827 5825 5823 5821 5819 5817 5815 5814 5812 5810 5809 5807 5805 5804 5803 5802 5801 5800 5800 5799 5798 5797 5796 5794 5794 5793 5792 5791 5790 5790 5789 5789 5788 5787 5787
5828 5826 5824 5822 5820 5818 5815 5814 5812 5809 5808 5806 5804 5802 5800 5799 5797 5796 5795 5794 5793 5793 5792 5791 5790 5789 5788 5787 5786 5785 5784 5783 5783 5782 5781 5780 5779 5779
5821 5819 5817 5815 5813 5811 5809 5808 5806 5804 5801 5799 5798 5796 5794 5792 5791 5789 5788 5787 5786 5785 5784 5784 5783 5782 5780 5779 5778 5778 5777 5776 5775 5774 5773 5772 5771 5770
5814 5812 5810 5808 5807 5805 5803 5801 5799 5797 5795 5793 5791 5789 5787 5785 5783 5782 5781 5780 5779 5777 5776 5775 5775 5774 5773 5772 5770 5769 5768 5768 5767 5765 5764 5763 5762 5761
5807 5805 5803 5801 5799 5797 5796 5794 5792 5790 5788 5786 5784 5782 5780 5778 5776 5775 5773 5772 5771 5770 5768 5767 5766 5765 5765 5764 5762 5761 5759 5758 5757 5756 5755 5754 5753 5752
5800 5798 5796 5793 5791 5790 5788 5786 5784 5782 5780 5778 5777 5775 5773 5771 5769 5767 5765 5764 5763 5761 5760 5759 5758 5757 5755 5755 5753 5752 5750 5749 5748 5746 5745 5744 5743 5742
5792 5790 5788 5786 5784 5782 5781 5779 5777 5775 5773 5771 5769 5768 5765 5763 5761 5759 5757 5756 5754 5753 5751 5750 5749 5747 5746 5745 5744 5742 5740 5739 5737 5736 5735 5734 5733 5732
5784 5782 5780 5778 5776 5774 5773 5771 5769 5767 5766 5764 5761 5759 5757 5755 5753 5751 5749 5747 5745 5743 5742 5740 5739 5737 5736 5735 5734 5732 5730 5729 5727 5726 5725 5724 5723 5721
5775 5773 5772 5770 5768 5766 5765 5763 5761 5759 5757 5755 5753 5751 5748 5746 5744 5742 5740 5738 5736 5734 5732 5730 5728 5727 5726 5724 5723 5721 5719 5718 5716 5715 5714 5713 5711 5710
5766 5764 5763 5761 5760 5758 5756 5754 5752 5750 5748 5746 5744 5742 5739 5737 5735 5733 5730 5728 5726 5724 5722 5720 5718 5716 5714 5713 5711 5710 5708 5707 5705 5704 5703 5702 5700 5699
5757 5756 5755 5753 5751 5749 5747 5745 5743 5741 5739 5736 5734 5732 5730 5728 5725 5723 5720 5718 5716 5714 5712 5710 5707 5705 5703 5702 5700 5698 5697 5695 5694 5692 5691 5690 5689 5687
5748 5747 5745 5743 5742 5740 5738 5735 5733 5731 5728 5726 5724 5722 5720 5718 5715 5713 5710 5707 5705 5703 5701 5699 5696 5694 5693 5691 5689 5687 5685 5684 5682 5680 5679 5677 5676 5675
5739 5737 5736 5734 5732 5730 5728 5725 5723 5721 5719 5717 5714 5712 5710 5708 5705 5702 5700 5697 5694 5692 5690 5687 5685 5683 5681 5680 5678 5676 5673 5671 5670 5668 5667 5665 5664 5662
5729 5727 5726 5724 5722 5720 5718 5716 5713 5711 5709 5707 5704 5702 5700 5697 5694 5692 5689 5686 5684 5681 5678 5676 5673 5671 5669 5668 5666 5664 5662 5659 5658 5656 5655 5653 5652 5650
5719 5718 5716 5714 5712 5711 5708 5706 5703 5701 5699 5697 5695 5692 5690 5687 5685 5682 5679 5676 5673 5670 5667 5665 5662 5660 5658 5656 5654 5653 5650 5648 5645 5643 5642 5641 5639 5638
5710 5708 5706 5704 5703 5701 5698 5696 5694 5692 5690 5687 5685 5682 5680 5677 5675 5672 5669 5666 5663 5660 5657 5654 5652 5649 5646 5644 5642 5640 5638 5636 5634 5632 5630 5628 5626 5625